Вернуться в каталог

SPAWAR-CAL-OR

АктивенВоенныеSSO
NORAD 43778·PAYLOAD·🇺🇸 United States

Запущен Dec 3, 2018 с Vandenberg Space Force Base

Loading…

Ближайшие Пролёты (ближайшие 24 часа)

TLE

СвежийSource: Space-Track

Эпоха: Sep 14, 2026, 02:03 UTC

1 43778U 18099W   26257.08602597  .00007746  00000-0  31561-3 0  9998
2 43778  97.3703 303.9041 0011082  12.5804 347.5708 15.24691226426196

Отслеживайте SPAWAR-CAL-OR в реальном времени с AllMySat

Download on the App Store